1506474000.33,4718,15.13,74748.0,2.19,-22.77,-24.47,0,*48
1506474001.54,4719,15.13,74754.5,2.19,-22.83,-24.41,0,*44
1506474002.76,4720,15.13,74748.3,2.19,-22.77,-24.35,0,*46
1506474003.98,4721,15.13,74748.8,2.19,-22.77,-24.35,0,*47
1506474005.2,4722,15.13,74750.8,2.19,-22.83,-24.41,0,*4C
1506474006.4,4723,15.13,74754.3,2.19,-22.93,-24.47,0,*4A
1506474007.62,4724,15.13,74746.3,2.21,-22.41,-24.05,0,*4F
1506474008.81,4725,15.13,74750.5,2.19,-22.63,-24.31,0,*42
1506474010.06,4726,15.13,74752.0,2.21,-22.57,-24.15,0,*4B
1506474011.28,4727,15.13,74750.0,2.19,-22.67,-24.25,0,*41
1506474012.53,4728,15.13,74750.0,2.21,-22.57,-24.15,0,*45
1506474013.74,4729,15.13,74748.3,2.19,-22.63,-24.11,0,*4C
1506474014.93,4730,15.13,74750.0,2.19,-22.67,-24.35,0,*46
1506474016.17,4731,15.13,74750.8,2.21,-22.77,-24.35,0,*4D
1506474017.37,4732,15.13,74748.5,2.19,-22.97,-24.47,0,*4E
1506474018.6,4733,15.13,74750.3,2.19,-22.77,-24.47,0,*41
1506474019.82,4734,15.13,74750.8,2.21,-22.63,-24.31,0,*49
1506474021.06,4735,15.13,74750.8,2.21,-22.73,-24.35,0,*4D
1506474022.27,4736,15.13,74748.3,2.21,-22.87,-24.35,0,*45
1506474023.52,4737,15.13,74748.8,2.19,-22.77,-24.41,0,*43
1506474024.71,4738,15.13,74748.8,2.19,-22.67,-24.35,0,*4E
1506474025.93,4739,15.13,74754.3,2.21,-22.63,-24.35,0,*40
1506474027.14,4740,15.13,74750.8,2.19,-22.67,-24.41,0,*42
1506474028.36,4741,15.13,74750.3,2.19,-22.83,-24.41,0,*49
1506474029.58,4742,15.13,74750.3,2.19,-22.77,-24.35,0,*42
1506474030.83,4743,15.13,74752.0,2.21,-22.77,-24.35,0,*48
1506474032.08,4744,15.13,74750.8,2.19,-22.77,-24.41,0,*47
1506474033.36,4745,15.13,74750.0,2.21,-22.77,-24.41,0,*4D
1506474034.58,4746,15.13,74752.8,2.19,-22.93,-24.41,0,*4F
1506474035.85,4747,15.13,74750.3,2.21,-22.73,-24.41,0,*4B
1506474037.04,4748,15.13,74750.5,2.19,-22.63,-24.35,0,*4D
1506474038.26,4749,15.13,74748.8,2.19,-22.67,-24.25,0,*49
1506474039.44,4750,15.13,74748.0,2.19,-22.67,-24.35,0,*40
1506474040.69,4751,15.13,74750.5,2.19,-22.77,-24.41,0,*43
1506474041.91,4752,15.13,74750.3,2.19,-22.83,-24.41,0,*4B
1506474043.1,4753,15.13,74754.5,2.19,-22.67,-24.35,0,*43
1506474044.33,4754,15.13,74752.5,2.19,-22.53,-24.21,0,*46
1506474045.56,4755,15.13,74752.8,2.19,-22.53,-24.21,0,*47
1506474046.77,4756,15.13,74752.0,2.19,-22.63,-24.25,0,*43
1506474047.96,4757,15.13,74752.5,2.19,-22.63,-24.35,0,*43
1506474049.19,4758,15.13,74748.5,2.19,-22.53,-24.25,0,*4E
1506474050.41,4759,15.13,74748.5,2.19,-22.47,-24.05,0,*48
1506474051.68,4760,15.13,74754.5,2.21,-22.47,-24.15,0,*48
1506474052.91,4761,15.13,74746.5,2.17,-22.57,-24.31,0,*4B
1506474054.17,4762,15.13,74748.3,2.17,-22.73,-24.41,0,*49
1506474055.4,4763,15.13,74752.8,2.17,-22.83,-24.47,0,*41
1506474056.65,4764,15.13,74754.0,2.19,-22.47,-24.21,0,*40
1506474057.86,4765,15.13,74748.5,2.19,-22.67,-24.41,0,*45
1506474059.11,4766,15.13,74754.3,2.19,-22.77,-24.41,0,*47
1506474060.3,4767,15.13,74748.8,2.19,-22.63,-24.35,0,*40
1506474061.55,4768,15.13,74746.8,2.19,-22.47,-24.25,0,*48
1506474062.77,4769,15.13,74748.5,2.19,-22.67,-24.21,0,*4F
1506474063.99,4770,15.13,74748.8,2.19,-22.63,-24.25,0,*47
1506474065.18,4771,15.13,74748.0,2.19,-22.67,-24.35,0,*43
1506474066.43,4772,15.13,74748.0,2.19,-22.47,-24.21,0,*47
1506474067.66,4773,15.13,74750.0,2.19,-22.53,-24.25,0,*47
1506474068.88,4774,15.13,74750.0,2.19,-22.53,-24.25,0,*40
1506474070.11,4775,15.13,74750.5,2.19,-22.53,-24.21,0,*45
1506474071.37,4776,15.13,74748.8,2.19,-22.47,-24.21,0,*43
1506474072.61,4777,15.13,74750.8,2.19,-22.47,-24.11,0,*41
1506474073.83,4778,15.13,74752.0,2.19,-22.63,-24.25,0,*4F
1506474075.04,4779,15.13,74748.0,2.19,-22.67,-24.41,0,*48
1506474076.23,4780,15.13,74750.0,2.19,-22.63,-24.35,0,*49
1506474077.45,4781,15.13,74754.0,2.19,-22.63,-24.25,0,*49
1506474078.67,4782,15.13,74750.0,2.19,-22.63,-24.21,0,*4E
1506474079.9,4783,15.13,74744.5,2.19,-22.53,-24.21,0,*4C
1506474081.12,4784,15.13,74750.8,2.19,-22.67,-24.25,0,*48
1506474082.37,4785,15.13,74754.0,2.17,-22.53,-24.25,0,*40
1506474083.61,4786,15.13,74748.0,2.17,-22.53,-24.15,0,*40
1506474084.86,4787,15.13,74750.3,2.17,-22.57,-24.15,0,*45
1506474086.1,4788,15.13,74746.5,2.17,-22.53,-24.15,0,*4E
1506474087.34,4789,15.13,74746.8,2.17,-22.67,-24.15,0,*48
1506474088.58,4790,15.13,74748.3,2.17,-22.41,-24.11,0,*40
1506474089.83,4791,15.13,74754.8,2.17,-22.53,-24.15,0,*46
1506474091.07,4792,15.13,74750.5,2.17,-22.37,-23.99,0,*44
1506474092.32,4793,15.13,74748.3,2.17,-22.57,-24.25,0,*43
1506474093.54,4794,15.13,74748.0,2.19,-22.37,-24.11,0,*4B
1506474094.76,4795,15.13,74750.8,2.19,-22.53,-24.25,0,*4F
1506474095.95,4796,15.13,74748.0,2.19,-22.63,-24.35,0,*4E
1506474097.19,4797,15.13,74744.0,2.19,-22.47,-24.11,0,*4F
1506474098.41,4798,15.13,74746.8,2.19,-22.53,-24.11,0,*45
1506474099.63,4799,15.13,74748.3,2.21,-22.41,-24.05,0,*49
1506474100.83,4800,15.13,74748.0,2.19,-22.27,-24.05,0,*4D
1506474102.04,4801,15.13,74748.0,2.19,-22.53,-24.11,0,*4A
1506474103.24,4802,15.13,74752.3,2.19,-22.37,-24.05,0,*4E
1506474104.46,4803,15.13,74744.0,2.19,-22.53,-24.11,0,*48
1506474105.68,4804,15.13,74746.8,2.19,-22.31,-24.05,0,*4E
1506474106.95,4805,15.13,74746.8,2.17,-22.21,-23.85,0,*4F
1506474108.19,4806,15.13,74746.5,2.17,-22.41,-24.11,0,*40
1506474109.44,4807,15.13,74742.5,2.17,-22.53,-24.11,0,*42
1506474110.68,4808,15.13,74744.8,2.21,-22.41,-23.99,0,*4C
1506474111.9,4809,15.13,74748.0,2.21,-22.41,-24.05,0,*4F
1506474113.11,4810,15.13,74746.8,2.19,-22.37,-24.11,0,*48
1506474114.33,4811,15.13,74746.8,2.19,-22.37,-23.95,0,*42
1506474115.57,4812,15.13,74746.8,2.19,-22.31,-23.95,0,*47
1506474116.78,4813,15.13,74750.8,2.19,-22.37,-23.95,0,*40
1506474118.02,4814,15.13,74746.3,2.19,-22.47,-24.11,0,*4B
1506474119.25,4815,15.13,74750.3,2.19,-22.53,-24.21,0,*4C
1506474120.47,4816,15.13,74746.3,2.19,-22.31,-24.05,0,*4D
1506474121.74,4817,15.13,74748.5,2.21,-22.47,-24.15,0,*47
1506474122.93,4818,15.13,74750.3,2.19,-22.63,-24.35,0,*47
1506474124.18,4819,15.13,74750.5,2.17,-22.53,-24.11,0,*4D
1506474125.37,4820,15.13,74748.8,2.19,-22.37,-24.05,0,*4E
1506474126.59,4821,15.13,74742.8,2.19,-22.37,-24.11,0,*4A
1506474127.83,4822,15.13,74748.3,2.19,-22.47,-24.11,0,*4E
1506474129.02,4823,15.13,74748.8,2.19,-22.37,-24.05,0,*4D
1506474130.27,4824,15.13,74750.8,2.21,-22.41,-23.99,0,*42
1506474131.52,4825,15.13,74748.8,2.19,-22.47,-24.21,0,*4A
1506474132.73,4826,15.13,74746.5,2.19,-22.31,-23.89,0,*4D
1506474133.96,4827,15.13,74748.5,2.19,-22.53,-24.21,0,*4D
1506474135.18,4828,15.13,74744.3,2.19,-22.53,-24.11,0,*41
1506474136.41,4829,15.13,74742.0,2.19,-22.47,-24.05,0,*40
1506474137.65,4830,15.13,74748.0,2.17,-22.57,-24.15,0,*46
1506474138.92,4831,15.13,74748.5,2.17,-22.31,-23.85,0,*49
1506474140.16,4832,15.13,74746.3,2.17,-22.41,-23.99,0,*40
1506474141.4,4833,15.13,74744.3,2.17,-22.41,-24.15,0,*42
1506474142.65,4834,15.13,74744.3,2.17,-22.53,-24.11,0,*42
1506474143.89,4835,15.13,74744.0,2.17,-22.57,-24.15,0,*43
1506474145.14,4836,15.13,74750.8,2.17,-22.53,-24.15,0,*44
1506474146.38,4837,15.13,74746.5,2.17,-22.41,-24.11,0,*42
1506474147.62,4838,15.13,74746.5,2.17,-22.53,-24.11,0,*4E
1506474148.87,4839,15.13,74746.5,2.17,-22.53,-24.15,0,*4B
1506474150.12,4840,15.13,74746.0,2.17,-22.57,-24.25,0,*42
1506474151.37,4841,15.13,74750.0,2.17,-22.53,-24.25,0,*47
1506474152.62,4842,15.13,74746.0,2.17,-22.57,-24.15,0,*43
1506474153.83,4843,15.13,74748.3,2.15,-22.53,-24.15,0,*44
1506474155.05,4844,15.13,74746.8,2.15,-22.53,-24.15,0,*43
1506474156.27,4845,15.13,74750.8,2.15,-22.41,-23.99,0,*42
1506474157.48,4846,15.13,74746.5,2.15,-22.41,-23.99,0,*41
1506474158.72,4847,15.13,74748.0,2.17,-22.41,-24.11,0,*45
1506474159.96,4848,15.13,74746.3,2.17,-22.37,-23.95,0,*40
1506474161.21,4849,15.13,74744.3,2.17,-22.53,-23.99,0,*4F
1506474162.45,4850,15.13,74750.8,2.17,-22.57,-24.15,0,*40
1506474163.7,4851,15.13,74750.8,2.17,-22.57,-24.15,0,*41
1506474164.91,4852,15.13,74748.8,2.15,-22.37,-23.95,0,*49
1506474166.15,4853,15.13,74744.8,2.17,-22.41,-23.95,0,*4B
1506474167.39,4854,15.13,74744.3,2.17,-22.37,-23.95,0,*4D
1506474168.63,4855,15.13,74746.8,2.17,-22.41,-23.99,0,*41
1506474169.84,4856,15.13,74746.5,2.15,-22.41,-23.95,0,*4C
1506474171.06,4857,15.13,74750.5,2.15,-22.21,-23.79,0,*49
1506474172.3,4858,15.13,74746.5,2.17,-22.37,-23.95,0,*41
1506474173.54,4859,15.13,74748.3,2.17,-22.37,-23.95,0,*40
1506474174.75,4860,15.13,74746.3,2.15,-22.37,-23.95,0,*48
1506474175.97,4861,15.13,74744.3,2.15,-22.41,-23.99,0,*44
1506474177.19,4862,15.13,74744.3,2.15,-22.37,-23.99,0,*46
1506474178.4,4863,15.13,74746.0,2.15,-22.37,-23.95,0,*4B
1506474179.62,4864,15.13,74748.0,2.15,-22.53,-24.11,0,*45
1506474180.84,4865,15.13,74744.3,2.15,-22.53,-24.11,0,*44
1506474182.08,4866,15.13,74742.3,2.17,-22.57,-24.11,0,*41
1506474183.3,4867,15.13,74748.8,2.15,-22.53,-23.95,0,*4D
1506474184.52,4868,15.13,74754.8,2.15,-22.37,-23.85,0,*41
1506474185.73,4869,15.13,74750.0,2.15,-22.41,-23.95,0,*40
1506474186.98,4870,15.13,74744.0,2.13,-22.37,-23.85,0,*4E
1506474188.19,4871,15.13,74748.8,2.15,-22.41,-23.99,0,*45
1506474189.41,4872,15.13,74748.3,2.15,-22.41,-23.99,0,*46
1506474190.62,4873,15.13,74744.3,2.15,-22.57,-24.11,0,*47
1506474191.84,4874,15.13,74744.3,2.15,-22.31,-23.79,0,*49
1506474193.09,4875,15.13,74746.3,2.15,-22.31,-23.85,0,*4B
1506474194.31,4876,15.13,74750.0,2.15,-22.31,-23.79,0,*4B
1506474195.55,4877,15.13,74750.5,2.15,-22.31,-23.85,0,*49
1506474196.77,4878,15.13,74744.5,2.15,-22.37,-23.99,0,*4D
1506474197.99,4879,15.13,74746.8,2.15,-22.31,-23.79,0,*44
1506474199.2,4880,15.13,74746.5,2.15,-22.37,-23.99,0,*4A
1506474200.43,4881,15.13,74746.8,2.15,-22.37,-23.85,0,*46
1506474201.64,4882,15.13,74744.5,2.15,-22.37,-23.95,0,*44
1506474202.85,4883,15.13,74748.0,2.15,-22.41,-23.95,0,*44
1506474204.12,4884,15.13,74748.8,2.17,-22.31,-23.85,0,*47
1506474205.34,4885,15.13,74744.5,2.15,-22.31,-23.79,0,*47
1506474206.56,4886,15.13,74746.5,2.15,-22.31,-23.79,0,*44
1506474207.8,4887,15.13,74744.8,2.15,-22.21,-23.69,0,*45
1506474209.04,4888,15.13,74746.0,2.15,-22.31,-23.65,0,*47
1506474210.26,4889,15.13,74746.3,2.15,-22.31,-23.79,0,*4B
1506474211.47,4890,15.13,74746.8,2.15,-22.31,-23.79,0,*43
1506474212.72,4891,15.13,74746.8,2.15,-22.17,-23.69,0,*47
1506474213.99,4892,15.13,74746.5,2.17,-22.21,-23.65,0,*4F
1506474215.23,4893,15.13,74744.5,2.15,-22.17,-23.65,0,*49
1506474216.5,4894,15.13,74748.3,2.17,-22.31,-23.69,0,*44
1506474217.74,4895,15.13,74748.5,2.17,-22.41,-23.95,0,*41
1506474218.96,4896,15.13,74748.3,2.15,-22.41,-23.85,0,*41
1506474220.17,4897,15.13,74746.0,2.15,-22.41,-23.95,0,*41
1506474221.41,4898,15.13,74750.8,2.15,-22.17,-23.69,0,*4E
1506474222.65,4899,15.13,74748.8,2.15,-22.31,-23.69,0,*4B
1506474223.89,4900,15.13,74746.3,2.15,-22.31,-23.69,0,*4A
1506474225.11,4901,15.13,74748.3,2.15,-22.41,-23.85,0,*4E
1506474226.32,4902,15.13,74750.3,2.15,-22.41,-23.95,0,*4C
1506474227.56,4903,15.13,74744.0,2.15,-22.31,-23.69,0,*49
1506474228.8,4904,15.13,74746.0,2.15,-22.31,-23.65,0,*42
1506474230.05,4905,15.13,74746.8,2.15,-22.31,-23.85,0,*4D
1506474231.26,4906,15.13,74750.5,2.15,-22.41,-23.99,0,*44
1506474232.45,4907,15.13,74750.0,2.15,-22.37,-23.79,0,*4A
1506474233.67,4908,15.13,74746.0,2.15,-22.41,-23.85,0,*47
1506474234.89,4909,15.13,74748.8,2.15,-22.41,-23.85,0,*46
1506474236.12,4910,15.13,74748.5,2.15,-22.53,-23.85,0,*4D
1506474237.34,4911,15.13,74748.0,2.15,-22.31,-23.79,0,*4B
1506474238.58,4912,15.13,74744.5,2.15,-22.31,-23.85,0,*4B
1506474239.8,4913,15.13,74752.5,2.15,-22.41,-23.85,0,*4D
1506474241.05,4914,15.13,74746.0,2.13,-22.47,-23.89,0,*46
1506474242.29,4915,15.13,74746.8,2.13,-22.41,-23.85,0,*4D
1506474243.56,4916,15.13,74748.3,2.13,-22.21,-23.69,0,*4A
1506474244.81,4917,15.13,74750.3,2.13,-22.21,-23.75,0,*46
1506474246.03,4918,15.13,74744.8,2.13,-22.41,-23.75,0,*4F
1506474247.27,4919,15.13,74748.8,2.15,-22.21,-23.69,0,*43
1506474248.51,4920,15.13,74750.3,2.13,-22.41,-23.85,0,*4B
1506474249.75,4921,15.13,74744.0,2.13,-22.27,-23.69,0,*48
1506474251.0,4922,15.13,74742.0,2.13,-22.27,-23.69,0,*4B
1506474252.24,4923,15.13,74744.8,2.13,-22.21,-23.59,0,*4F
1506474253.46,4924,15.13,74744.8,2.13,-22.37,-23.75,0,*41
1506474254.68,4925,15.13,74746.0,2.11,-22.27,-23.69,0,*4E
1506474255.91,4926,15.13,74744.5,2.13,-22.37,-23.75,0,*43
1506474257.15,4927,15.13,74750.5,2.13,-22.21,-23.59,0,*4B
1506474258.37,4928,15.13,74748.3,2.11,-22.37,-23.69,0,*42
1506474259.64,4929,15.13,74746.8,2.13,-22.21,-23.69,0,*46
1506474260.88,4930,15.13,74744.8,2.13,-22.11,-23.53,0,*44
1506474262.12,4931,15.13,74746.3,2.13,-22.27,-23.69,0,*49
1506474263.34,4932,15.13,74744.5,2.13,-22.37,-23.75,0,*46
1506474264.59,4933,15.13,74748.5,2.13,-22.41,-23.85,0,*49
1506474265.81,4934,15.13,74748.0,2.13,-22.37,-23.75,0,*40
1506474267.04,4935,15.13,74750.8,2.13,-22.37,-23.75,0,*41
1506474268.28,4936,15.13,74746.3,2.13,-22.41,-23.85,0,*4C
1506474269.52,4937,15.13,74746.3,2.13,-22.27,-23.69,0,*4F
1506474270.76,4938,15.13,74744.3,2.13,-22.27,-23.69,0,*40
1506474272.0,4939,15.13,74746.8,2.13,-22.27,-23.69,0,*41
1506474273.25,4940,15.13,74746.3,2.13,-22.37,-23.69,0,*4E
1506474274.49,4941,15.13,74744.8,2.13,-22.27,-23.69,0,*4E
1506474275.71,4942,15.13,74746.8,2.11,-22.37,-23.69,0,*4E
1506474276.95,4943,15.13,74746.0,2.13,-22.41,-23.69,0,*4C
1506474278.16,4944,15.13,74748.3,2.11,-22.41,-23.69,0,*49
1506474279.36,4945,15.13,74752.3,2.11,-22.41,-23.75,0,*45
1506474280.6,4946,15.13,74748.5,2.13,-22.37,-23.69,0,*48
1506474281.8,4947,15.13,74744.0,2.11,-22.27,-23.59,0,*49
1506474283.04,4948,15.13,74746.0,2.13,-22.21,-23.59,0,*42
1506474284.26,4949,15.13,74750.5,2.13,-22.37,-23.59,0,*44
1506474285.5,4950,15.13,74750.0,2.13,-22.11,-23.53,0,*42
1506474286.75,4951,15.13,74744.0,2.13,-22.21,-23.59,0,*4A
1506474287.99,4952,15.13,74748.8,2.13,-22.37,-23.69,0,*4D
1506474289.23,4953,15.13,74750.3,2.13,-22.27,-23.69,0,*4D
1506474290.5,4954,15.13,74746.0,2.13,-22.21,-23.53,0,*45
1506474291.74,4955,15.13,74748.0,2.13,-22.37,-23.69,0,*4A
1506474292.99,4956,15.13,74748.5,2.11,-22.21,-23.69,0,*4C
1506474294.23,4957,15.13,74746.5,2.13,-22.37,-23.53,0,*41
1506474295.45,4958,15.13,74746.5,2.13,-22.27,-23.59,0,*45
1506474296.64,4959,15.13,74748.0,2.11,-22.41,-23.59,0,*46
1506474297.91,4960,15.13,74746.8,2.13,-22.21,-23.53,0,*42
1506474299.15,4961,15.13,74746.8,2.13,-22.37,-23.69,0,*4D
1506474300.38,4962,15.13,74748.0,2.11,-22.47,-23.75,0,*46
1506474301.62,4963,15.13,74740.5,2.13,-22.27,-23.69,0,*4E
1506474302.86,4964,15.13,74744.0,2.13,-22.37,-23.53,0,*41
1506474304.08,4965,15.13,74746.0,2.13,-22.27,-23.59,0,*4B
1506474305.3,4966,15.13,74750.5,2.13,-22.37,-23.59,0,*49
1506474306.5,4967,15.13,74746.0,2.11,-22.27,-23.59,0,*4B
1506474307.71,4968,15.13,74748.3,2.11,-22.37,-23.69,0,*46
1506474308.93,4969,15.13,74748.5,2.11,-22.27,-23.53,0,*4F
1506474310.16,4970,15.13,74746.5,2.11,-22.21,-23.39,0,*4D
1506474311.35,4971,15.13,74746.0,2.11,-22.41,-23.59,0,*4C
1506474312.54,4972,15.13,74748.3,2.11,-22.41,-23.59,0,*4F
1506474313.74,4973,15.13,74746.8,2.11,-22.37,-23.59,0,*4F
1506474314.96,4974,15.13,74746.8,2.13,-22.11,-23.39,0,*48
1506474316.18,4975,15.13,74744.0,2.11,-22.21,-23.43,0,*45
1506474317.41,4976,15.13,74748.3,2.11,-22.21,-23.39,0,*4B
1506474318.63,4977,15.13,74748.3,2.11,-22.21,-23.43,0,*47
1506474319.85,4978,15.13,74748.5,2.11,-22.27,-23.53,0,*4F
1506474321.07,4979,15.13,74748.8,2.11,-22.41,-23.53,0,*4E
1506474322.29,4980,15.13,74742.0,2.11,-22.21,-23.39,0,*42
1506474323.51,4981,15.13,74746.0,2.11,-22.37,-23.53,0,*48
1506474324.72,4982,15.13,74744.8,2.11,-22.27,-23.43,0,*4B
1506474325.94,4983,15.13,74750.5,2.11,-22.21,-23.43,0,*4C
1506474327.17,4984,15.13,74748.0,2.13,-22.27,-23.43,0,*4F
1506474328.36,4985,15.13,74740.3,2.11,-22.11,-23.39,0,*44
1506474329.57,4986,15.13,74746.5,2.11,-22.27,-23.43,0,*4F
1506474330.78,4987,15.13,74750.0,2.11,-22.27,-23.53,0,*4F
1506474332.0,4988,15.13,74746.5,2.11,-22.27,-23.53,0,*40
1506474333.22,4989,15.13,74746.8,2.11,-22.37,-23.53,0,*40
1506474334.43,4990,15.13,74744.3,2.11,-22.37,-23.43,0,*49
1506474335.65,4991,15.13,74744.3,2.11,-22.27,-23.53,0,*48
1506474336.87,4992,15.13,74746.0,2.11,-22.27,-23.53,0,*4B
1506474338.06,4993,15.13,74748.3,2.11,-22.27,-23.39,0,*46
1506474339.26,4994,15.13,74750.0,2.11,-22.27,-23.39,0,*41
1506474340.46,4995,15.13,74744.0,2.11,-22.27,-23.43,0,*4D
1506474341.7,4996,15.13,74744.5,2.07,-22.17,-23.29,0,*46
1506474342.97,4997,15.13,74746.0,2.05,-22.21,-23.49,0,*46
1506474344.16,4998,15.13,74744.5,2.07,-22.27,-23.39,0,*4A
1506474345.38,4999,15.13,74744.5,2.07,-22.27,-23.49,0,*4C
1506474346.59,5000,15.13,74748.3,2.07,-22.41,-23.49,0,*44
1506474347.78,5001,15.13,74744.8,2.07,-22.27,-23.39,0,*42
1506474349.03,5002,15.13,74746.3,2.07,-22.17,-23.29,0,*43
1506474350.24,5003,15.13,74746.8,2.07,-22.27,-23.29,0,*41
1506474351.43,5004,15.13,74748.3,2.07,-22.27,-23.43,0,*4A
1506474352.65,5005,15.13,74746.3,2.07,-22.17,-23.39,0,*45
1506474353.9,5006,15.13,74746.0,2.07,-22.17,-23.29,0,*47
1506474355.09,5007,15.13,74746.5,2.07,-22.27,-23.43,0,*49
1506474356.31,5008,15.13,74750.5,2.07,-22.47,-23.59,0,*4B
1506474357.53,5009,15.13,74742.5,2.07,-22.41,-23.49,0,*4D
1506474358.8,5010,15.13,74744.3,2.05,-22.31,-23.33,0,*4D
1506474360.05,5011,15.13,74748.5,2.11,-22.21,-23.19,0,*40
1506474361.3,5012,15.13,74750.8,2.11,-22.21,-23.33,0,*4B
1506474362.55,5013,15.13,74746.8,2.11,-22.21,-23.23,0,*4B
1506474363.74,5014,15.13,74742.5,2.07,-22.41,-23.39,0,*46
1506474364.98,5015,15.13,74744.5,2.07,-22.31,-23.29,0,*41
1506474366.19,5016,15.13,74744.8,2.07,-22.31,-23.39,0,*43
1506474367.4,5017,15.13,74750.8,2.07,-22.31,-23.39,0,*42
1506474368.59,5018,15.13,74744.0,2.07,-22.27,-23.39,0,*4A
1506474369.87,5019,15.13,74748.3,2.05,-22.47,-23.33,0,*45
1506474371.08,5020,15.13,74744.5,2.07,-22.27,-23.29,0,*40
1506474372.29,5021,15.13,74744.8,2.07,-22.27,-23.29,0,*41
1506474373.55,5022,15.13,74744.8,2.11,-22.21,-23.23,0,*49
1506474374.81,5023,15.13,74748.3,2.05,-22.21,-23.29,0,*47
1506474376.01,5024,15.13,74746.5,2.07,-22.27,-23.09,0,*46
1506474377.23,5025,15.13,74746.5,2.07,-22.27,-23.23,0,*4F
1506474378.44,5026,15.13,74744.8,2.07,-22.41,-23.29,0,*46
1506474379.69,5027,15.13,74744.8,2.05,-22.37,-23.33,0,*4F
1506474380.9,5028,15.13,74744.0,2.07,-22.31,-23.39,0,*4E
1506474382.12,5029,15.13,74746.0,2.07,-22.41,-23.29,0,*49
1506474383.36,5030,15.13,74748.3,2.07,-22.31,-23.23,0,*4C
1506474384.58,5031,15.13,74746.5,2.07,-22.31,-23.39,0,*46
1506474385.79,5032,15.13,74748.8,2.07,-22.41,-23.29,0,*43
1506474387.0,5033,15.13,74744.5,2.07,-22.27,-23.29,0,*42
1506474388.19,5034,15.13,74744.8,2.07,-22.11,-23.09,0,*42
1506474389.42,5035,15.13,74744.3,2.07,-22.17,-23.13,0,*4E
1506474390.64,5036,15.13,74748.8,2.07,-22.17,-23.09,0,*46
1506474391.86,5037,15.13,74748.3,2.07,-22.17,-23.13,0,*4C
1506474393.09,5038,15.13,74746.5,2.07,-22.17,-23.13,0,*43
1506474394.34,5039,15.13,74742.8,2.11,-22.21,-23.19,0,*4A
1506474395.61,5040,15.13,74742.5,2.05,-22.31,-23.19,0,*40
1506474396.84,5041,15.13,74744.3,2.07,-22.17,-22.97,0,*40
1506474398.03,5042,15.13,74746.3,2.07,-22.27,-23.13,0,*4D
1506474399.22,5043,15.13,74744.5,2.07,-22.27,-23.13,0,*4C
1506474400.47,5044,15.13,74744.0,2.05,-22.21,-23.13,0,*4F
1506474401.71,5045,15.13,74744.3,2.05,-22.37,-23.29,0,*40
1506474402.93,5046,15.13,74746.0,2.07,-22.47,-23.13,0,*4F
1506474404.15,5047,15.13,74748.3,2.07,-22.41,-23.29,0,*41
1506474405.39,5048,15.13,74744.8,2.05,-22.21,-23.13,0,*43
1506474406.67,5049,15.13,74744.8,2.05,-22.47,-23.33,0,*40
1506474407.9,5050,15.13,74750.5,2.05,-22.57,-23.43,0,*4E
1506474409.11,5051,15.13,74746.5,2.07,-22.41,-23.29,0,*46
1506474410.36,5052,15.13,74746.8,2.05,-22.37,-23.19,0,*45
1506474411.63,5053,15.13,74746.3,2.05,-22.21,-23.19,0,*43
1506474412.86,5054,15.13,74748.8,2.05,-22.37,-23.13,0,*49
1506474414.11,5055,15.13,74746.0,2.05,-22.53,-23.29,0,*43
1506474415.33,5056,15.13,74746.0,2.07,-22.17,-22.97,0,*46
1506474416.55,5057,15.13,74744.3,2.03,-22.37,-23.29,0,*45
1506474417.8,5058,15.13,74750.5,2.05,-22.57,-23.33,0,*41
1506474419.05,5059,15.13,74754.3,2.05,-22.53,-23.33,0,*44
1506474420.3,5060,15.13,74746.3,2.05,-22.53,-23.33,0,*4E
1506474421.52,5061,15.13,74746.0,2.07,-22.41,-23.23,0,*4F
1506474422.79,5062,15.13,74754.0,2.05,-22.47,-23.33,0,*49
1506474424.07,5063,15.13,74746.8,2.05,-22.47,-23.19,0,*40
1506474425.32,5064,15.13,74748.5,2.05,-22.37,-23.19,0,*40
1506474426.6,5065,15.13,74748.3,2.05,-22.47,-23.19,0,*46
1506474427.82,5066,15.13,74746.8,2.05,-22.37,-23.13,0,*48
1506474429.07,5067,15.13,74744.0,2.05,-22.17,-22.83,0,*43
1506474430.32,5068,15.13,74746.0,2.05,-22.31,-22.97,0,*4D
1506474431.57,5069,15.13,74746.5,2.05,-22.31,-22.97,0,*4C
1506474432.82,5070,15.13,74746.8,2.05,-22.31,-22.97,0,*44
1506474434.07,5071,15.13,74750.3,2.05,-22.31,-22.97,0,*45
1506474435.32,5072,15.13,74748.8,2.07,-22.47,-23.23,0,*4B
1506474436.58,5073,15.13,74746.3,2.05,-22.53,-23.19,0,*44
1506474437.83,5074,15.13,74746.5,2.05,-22.47,-23.13,0,*4C
1506474439.11,5075,15.13,74748.5,2.05,-22.47,-23.19,0,*47
1506474440.33,5076,15.13,74746.8,2.03,-22.31,-22.97,0,*44
1506474441.58,5077,15.13,74750.8,2.05,-22.37,-23.03,0,*49
1506474442.85,5078,15.13,74748.8,2.05,-22.31,-23.03,0,*40
1506474444.13,5079,15.13,74746.5,2.05,-22.21,-23.03,0,*40
1506474445.38,5080,15.13,74744.5,2.05,-22.37,-23.03,0,*41
1506474446.62,5081,15.13,74746.5,2.05,-22.31,-22.87,0,*4B
1506474447.87,5082,15.13,74744.8,2.05,-22.31,-22.97,0,*49
1506474449.12,5083,15.13,74746.3,2.05,-22.47,-23.13,0,*44
1506474450.35,5084,15.13,74742.5,2.03,-22.47,-23.13,0,*45
1506474451.55,5085,15.13,74746.5,2.03,-22.37,-23.13,0,*43
1506474452.77,5086,15.13,74744.8,2.03,-22.21,-22.97,0,*4A
1506474454.0,5087,15.13,74750.5,2.03,-22.21,-22.87,0,*4A
1506474455.28,5088,15.13,74748.8,2.05,-22.47,-23.03,0,*4E
1506474456.52,5089,15.13,74744.5,2.05,-22.21,-22.87,0,*42
1506474457.77,5090,15.13,74746.3,2.05,-22.37,-23.03,0,*40
1506474459.02,5091,15.13,74748.5,2.05,-22.31,-22.97,0,*4B
1506474460.27,5092,15.13,74746.5,2.05,-22.31,-23.13,0,*45
1506474461.46,5093,15.13,74748.5,2.07,-22.41,-23.09,0,*4A
1506474462.69,5094,15.13,74746.3,2.05,-22.37,-22.97,0,*48
1506474463.96,5095,15.13,74746.8,2.05,-22.31,-23.03,0,*43
1506474465.21,5096,15.13,74746.8,2.05,-22.53,-23.19,0,*4F
1506474466.46,5097,15.13,74744.0,2.05,-22.37,-23.03,0,*47
1506474467.69,5098,15.13,74748.3,2.05,-22.37,-22.97,0,*44
1506474468.94,5099,15.13,74744.0,2.05,-22.31,-22.87,0,*42
1506474470.14,5100,15.13,74742.5,2.03,-22.37,-22.97,0,*42
1506474471.34,5101,15.13,74748.8,2.03,-22.53,-23.13,0,*4C
1506474472.59,5102,15.13,74744.8,2.05,-22.57,-23.33,0,*4F
1506474473.81,5103,15.13,74742.3,2.07,-22.47,-23.09,0,*44
1506474475.06,5104,15.13,74744.3,2.05,-22.31,-22.87,0,*47
1506474476.31,5105,15.13,74746.5,2.05,-22.47,-23.13,0,*4B
1506474477.56,5106,15.13,74744.0,2.05,-22.57,-23.29,0,*40
1506474478.81,5107,15.13,74746.0,2.05,-22.57,-23.29,0,*41
1506474480.05,5108,15.13,74744.0,2.05,-22.57,-23.29,0,*4E
1506474481.3,5109,15.13,74746.5,2.05,-22.67,-23.19,0,*4F
1506474482.54,5110,15.13,74750.0,2.05,-22.67,-23.29,0,*44
1506474483.77,5111,15.13,74746.5,2.03,-22.53,-23.19,0,*47
1506474485.0,5112,15.13,74748.0,2.03,-22.53,-23.19,0,*44
1506474486.25,5113,15.13,74744.5,2.05,-22.31,-22.83,0,*45
1506474487.47,5114,15.13,74744.8,2.05,-22.37,-22.87,0,*40
1506474488.7,5115,15.13,74748.5,2.05,-22.53,-23.13,0,*4F
1506474489.95,5116,15.13,74750.8,2.05,-22.57,-23.19,0,*42
1506474491.18,5117,15.13,74752.3,2.05,-22.53,-23.13,0,*4D
1506474492.43,5118,15.13,74748.5,2.05,-22.37,-23.03,0,*41
1506474493.68,5119,15.13,74746.5,2.05,-22.47,-22.97,0,*4B
1506474494.96,5120,15.13,74746.0,2.05,-22.47,-23.03,0,*4D
1506474496.2,5121,15.13,74746.8,2.05,-22.57,-23.29,0,*45
1506474497.43,5122,15.13,74746.5,2.05,-22.53,-23.13,0,*4B
1506474498.67,5123,15.13,74746.8,2.05,-22.67,-23.29,0,*44
1506474499.94,5124,15.13,74748.0,2.05,-22.73,-23.19,0,*45
1506474501.21,5125,15.13,74742.8,2.05,-22.73,-23.19,0,*44
1506474502.48,5126,15.13,74744.3,2.01,-22.73,-23.19,0,*43
1506474503.71,5127,15.13,74748.3,2.03,-22.57,-23.03,0,*4D
1506474504.96,5128,15.13,74748.3,2.01,-22.63,-23.19,0,*4C
1506474506.16,5129,15.13,74748.0,2.03,-22.57,-23.13,0,*42
1506474507.39,5130,15.13,74746.3,2.01,-22.57,-23.09,0,*43
1506474508.59,5131,15.13,74744.8,2.03,-22.57,-23.13,0,*4B